Regional Weather Roundup
Issued by NWS Huntsville, AL

Home | Current Version | Previous Version | Text Only | Print | Product List | Glossary On
Versions: 1 2 3 4 5 6 7 8 9 10 11 12 13 14 15 16 17 18 19 20 21 22 23 24 25 26 27 28 29 30 31 32 33 34 35 36 37 38 39 40 41 42 43 44 45 46 47 48 49 50
000
ASUS44 KHUN 230610
RWRHUN

WEATHER ROUNDUP FOR THE TENNESSEE VALLEY
NATIONAL WEATHER SERVICE HUNTSVILLE AL
100 AM CDT THU MAR 23 2017

ALZ001>004-230700-
NORTHWEST ALABAMA

CITY           SKY/WX    TMP DP  RH WIND       PRES   REMARKS
COURTLAND HCN    N/A     48 N/A N/A NE5         N/A
RUSSELLVILLE     N/A     46 N/A N/A MISG        N/A
SHOALS AIRPORT CLEAR     48  23  37 NE6       30.30S
6HR MIN TEMP:  48; 6HR MAX TEMP:  59;

SHOALS TVA RES   N/A     50 N/A N/A MISG        N/A
$$

ALZ005>007-016-230700-
NORTH CENTRAL ALABAMA

CITY           SKY/WX    TMP DP  RH WIND       PRES   REMARKS
CULLMAN AG STN   N/A     46 N/A N/A NE3         N/A
DECATUR AP     CLEAR     47  25  42 NE6       30.29F
6HR MIN TEMP:  46; 6HR MAX TEMP:  56;

HUNTSVILLE AP  CLEAR     48  26  42 NE7       30.28F
6HR MIN TEMP:  48; 6HR MAX TEMP:  58;

MERIDIANVILLE  CLEAR     43  28  56 N6        30.30F
REDSTONE ARSN  CLEAR     47  23  38 NE8       30.28S
VINEMONT AP    FAIR      41  31  67 CALM      30.28F
$$

ALZ008>010-230700-
NORTHEAST ALABAMA

CITY           SKY/WX    TMP DP  RH WIND       PRES   REMARKS
ALBERTVILLE    CLEAR     46  34  61 NE5       30.27S
FORT PAYNE     PTCLDY    41  34  75 CALM      30.29S
SCOTTSBORO AP  PTCLDY    45  36  70 CALM      30.31S
SCOTTSBORO HCN   N/A     43 N/A N/A MISG        N/A
VALLEY HEAD      N/A     43 N/A N/A MISG        N/A
$$

TNZ076-096-097-230700-
SOUTHEASTERN MIDDLE TENNESSEE

CITY           SKY/WX    TMP DP  RH WIND       PRES   REMARKS
TULLAHOMA      CLEAR     43  16  33 NE3       30.31F
WINCHESTER     CLEAR     43  36  75 CALM      30.31S
$$

...SURROUNDING SITES...

CITY           SKY/WX    TMP DP  RH WIND       PRES   REMARKS
ATLANTA        PTCLDY    53  32  44 E13       30.29R
ANNISTON       CLEAR     50  33  52 NE5       30.27S
BIRMINGHAM     NOT AVBL
CHATTANOOGA    CLOUDY    50  23  34 NE6       30.32R
CORINTH        FAIR      50  28  43 NE6       30.28S
DALTON         CLEAR     45  30  57 N5        30.30S
GADSDEN        CLEAR     45  39  79 N5        30.28F
GOLDEN TRNGL   CLEAR     55  28  35 NE8       30.21R
HALEYVILLE     FAIR      48  25  40 NE5       30.28F
JACKSON TN     CLEAR     49  24  37 E7        30.30R
MEMPHIS        CLEAR     54  26  34 E9        30.28F
NASHVILLE      CLEAR     43  22  43 NE7       30.34F
OXFORD MS      FAIR      50  28  43 E8        30.28R
ROME           CLEAR     44  33  65 CALM      30.29S
SAVANNAH       PTCLDY    48  23  37 NE7       30.28F
TUPELO         CLEAR     53  26  35 NE8       30.26F
TUSCALOOSA     CLEAR     54  34  46 N5        30.25F
$$

...GULF COAST WEATHER...

CITY           SKY/WX    TMP DP  RH WIND       PRES   REMARKS
GULFPORT       CLEAR     70  58  65 NE5       30.16S
PASCAGOULA     CLEAR     60  57  89 N3        30.17R
MOBILE         CLEAR     67  54  63 NE8       30.18S
GULF SHORES    CLEAR     66  60  82 NE5       30.17S
PENSACOLA      CLEAR     66  56  70 NE5       30.16F
DESTIN         PTCLDY    71  57  61 N5        30.17R
PANAMA CITY    CLEAR     69  53  57 NE7       30.16R
APPALACHICOLA  CLEAR     71  54  54 NE14      30.13R
$$




USA.gov is the U.S. government's official web portal to all federal, state and local government web resources and services.